1395705629727,5.19679
1395705689727,5.21651
1395705749727,5.21045
1395705809727,5.24143
1395705869727,5.21498
1395705929727,5.17637
1395705989727,5.19649
1395706049727,5.17955
1395706109727,5.15986
1395706169727,5.18568
1395706229727,5.24101
1395706289727,5.16894
1395706349727,5.21364
1395706409727,5.17324
1395706469727,5.19794
1395706529727,5.14880
1395706589727,5.18302
1395706649727,5.17460
1395706709727,5.21632
1395706769727,5.19577
1395706829727,5.18025
1395706889727,5.22553
1395706949727,5.17935
1395707009727,5.15592
1395707069727,5.18266
1395707129727,5.17175
1395707189727,5.16484
1395707249727,5.17794
1395707309727,5.19019
1395707369727,5.19538
1395707429727,5.20928
1395707489727,5.19064
1395707549727,5.17777
1395707609727,5.19732
1395707669727,5.20734
1395707729727,5.19335
1395707789727,5.19635
1395707849727,5.18824
1395707909727,5.19694
1395707969727,5.22308
1395708029727,5.21557
1395708089727,5.23686
1395708149727,5.16415
1395708209727,5.23784
1395708269727,5.20528
1395708329727,5.20345
1395708389727,5.19260
1395708449727,5.19168
1395708509727,5.19817
1395708569727,5.19836
1395708629727,5.24720
1395708689727,5.23145
1395708749727,5.21497
1395708809727,5.18023
1395708869727,5.21522
1395708929727,5.22821
1395708989727,5.21504
1395709049727,5.17049
1395709109727,5.21885
1395709169727,5.21429
1395709229740,5.19955
1395709289740,5.20773
1395709349740,5.18394
1395709409740,5.18215
1395709469740,5.20917
1395709529740,5.20782
1395709589740,5.21702
1395709649740,5.25045
1395709709740,5.24402
1395709769740,5.21658
1395709829740,5.19838
1395709889740,5.23113
1395709949740,5.18542
1395710009740,5.22681
1395710069740,5.18922
1395710129740,5.22975
1395710189740,5.20611
1395710249740,5.18705
1395710309740,5.17686
1395710369740,5.18536
1395710429740,5.22856
1395710489740,5.21449
1395710549740,5.21769
1395710609740,5.17977
1395710669740,5.23192
1395710729740,5.17879
1395710789740,5.23366
1395710849740,5.23222
1395710909740,5.19928
1395710969740,5.20743
1395711029740,5.19560
1395711089740,5.20137
1395711149740,5.19611
1395711209740,5.17483
1395711269740,5.18925
1395711329740,5.18121
1395711389740,5.17318
1395711449740,5.19889
1395711509740,5.18586
1395711569740,5.19610
1395711629740,5.18258
1395711689740,5.20606
1395711749740,5.20576
1395711809740,5.20341
1395711869740,5.17301
1395711929740,5.20231
1395711989740,5.18214
1395712049740,5.20244
1395712109740,5.20180
1395712169740,5.18374
1395712229740,5.19872
1395712289740,5.16773
1395712349740,5.20902
1395712409740,5.18535
1395712469740,5.22764
1395712529740,5.17084
1395712589740,5.19557
1395712649740,5.16162
1395712709740,5.16911
1395712769740,5.18161
1395712829752,5.20590
1395712889752,5.17979
1395712949752,5.21419
1395713009752,5.19124
1395713069752,5.17573
1395713129752,5.18957
1395713189752,5.17559
1395713249752,5.19556
1395713309752,5.21009
1395713369752,5.20397
1395713429752,5.17182
1395713489752,5.20294
1395713549752,5.17692
1395713609752,5.15150
1395713669752,5.17245
1395713729752,5.16304
1395713789752,5.18217
1395713849752,5.17930
1395713909752,5.13761
1395713969752,5.19939
1395714029752,5.17022
1395714089752,5.15918
1395714149752,5.17765
1395714209752,5.15920
1395714269752,5.18937
1395714329752,5.16585
1395714389752,5.18471
1395714449752,5.20238
1395714509752,5.14397
1395714569752,5.18740
1395714629752,5.21252
1395714689752,5.14635
1395714749752,5.19705
1395714809752,5.11850
1395714869752,5.13727
1395714929752,5.14968
1395714989752,5.14611
1395715049752,5.15621
1395715109752,5.16452
1395715169752,5.14281
1395715229752,5.16708
1395715289752,5.13742
1395715349752,5.15903
1395715409752,5.16693
1395715469752,5.17296
1395715529752,5.15101
1395715589752,5.14450
1395715649752,5.14077
1395715709752,5.14061
1395715769752,5.12320
1395715829752,5.17482
1395715889752,5.13876
1395715949752,5.15839
1395716009752,5.17285
1395716069752,5.18353
1395716129752,5.15502
1395716189752,5.14064
1395716249752,5.14434
1395716309752,5.16263
1395716369752,5.14944
1395716429765,5.18792
1395716489765,5.15196
1395716549765,5.12288
1395716609765,5.16618
1395716669765,5.12530
1395716729765,5.11486
1395716789765,5.15538
1395716849765,5.12412
1395716909765,5.14002
1395716969765,5.13911
1395717029765,5.15813
1395717089765,5.18570
1395717629765,5.14432
1395717689765,5.17920
1395717749765,5.17078
1395717809765,5.14341
1395717869765,5.19458
1395717929765,5.19311
1395717989765,5.20460
1395718049765,5.18077
1395718109765,5.17992
1395718169765,5.15618
1395718229765,5.19534
1395718289765,5.17562
1395718349765,5.18096
1395718409765,5.20082
1395718469765,5.19262
1395718529765,5.15950
1395718589765,5.17794
1395718649765,5.19699
1395718709765,5.17608
1395718769765,5.20763
1395718829765,5.18524
1395718889765,5.19012
1395718949765,5.19056
1395719009765,5.19395
1395719069765,5.14832
1395719129765,5.20539
1395719189765,5.16834
1395719249765,5.16793
1395719309765,5.18388
1395719369765,5.16938
1395719429765,5.15142
1395719489765,5.15094
1395719549765,5.15586
1395719609765,5.18769
1395719669765,5.16852
1395719729765,5.18832
1395719789765,5.15433
1395719849765,5.19187
1395719909765,5.15925
1395719969765,5.18331
1395720029777,5.18915
1395720089777,5.16764
1395720149777,5.14663
1395720209777,5.15959
1395720269777,5.22840
1395720329777,5.20231
1395720389777,5.16514
1395720449777,5.18410
1395720509777,5.17522
1395720569777,5.16636
1395720629777,5.18368
1395720689777,5.18489
1395720749777,5.21411
1395720809777,5.19907
1395720869777,5.15126
1395720929777,5.19124
1395720989777,5.22453
1395721049777,5.20288
1395721109777,5.20385
1395721169777,5.23997
1395721229777,5.19957
1395721289777,5.25514
1395721349777,5.26051
1395721409777,5.21964
1395721469777,5.22010
1395721529777,5.21557
1395721589777,5.20360
1395721649777,5.22411
1395721709777,5.20298
1395721769777,5.19897
1395721829777,5.21460
1395721889777,5.18264
1395721949777,5.19356
1395722009777,5.22466
1395722069777,5.20559
1395722129777,5.23787
1395722189777,5.22233
1395722249777,5.21462
1395722309777,5.23033
1395722369777,5.22756
1395722429777,5.20476
1395722489777,5.19368
1395722549777,5.20800
1395722609777,5.21688
1395722669777,5.20824
1395722729777,5.18312
1395722789777,5.24015
1395722849777,5.22618
1395722909777,5.25870
1395722969777,5.25888
1395723029777,5.23701
1395723089777,5.18989
1395723149777,5.22020
1395723209777,5.20884
1395723269777,5.25038
1395723329777,5.22508
1395723389777,5.23141
1395723449777,5.21413
1395723509777,5.21627
1395723569777,5.27912
1395723629789,5.24794
1395723689789,5.23723
1395723749789,5.23484
1395723809789,5.24939
1395723869789,5.24412
1395723929789,5.21014
1395723989789,5.22906
1395724049789,5.22759
1395724109789,5.20046
1395724169789,5.23016
1395724229789,5.19709
1395724289789,5.21166
1395724349789,5.21982
1395724409789,5.20309
1395724469789,5.19694
1395724529789,5.18986
1395724589789,5.22466
1395724649789,5.19444
1395724709789,5.20261
1395724769789,5.21522
1395724829789,5.19363
1395724889789,5.19193
1395724949789,5.22370
1395725009789,5.25780
1395725069789,5.25102
1395725129789,5.23323
1395725189789,5.27461
1395725249789,5.28405
1395725309789,5.30132
1395725369789,5.31167
1395725429789,5.29075
1395725489789,5.28126
1395725549789,5.25603
1395725609789,5.31776
1395725669789,5.29826
1395725729789,5.28025
1395725789789,5.29141
1395725849789,5.24896
1395725909789,5.30913
1395725969789,5.25069
1395726029789,5.24407
1395726089789,5.27660
1395726149789,5.23083
1395726209789,5.26532
1395726269789,5.22829
1395726329789,5.22210
1395726389789,5.17702
1395726449789,5.25756
1395726509789,5.23988
1395726569789,5.22526
1395726629789,5.21437
1395726689789,5.20642
1395726749789,5.19220
1395726809789,5.23456
1395726869789,5.18998
1395726929789,5.22304
1395726989789,5.20079
1395727049789,5.21776
1395727109789,5.23451
1395727169789,5.19995
1395727229801,5.23152
1395727289801,5.23039
1395727349802,5.20499
1395727409802,5.19261
1395727469801,5.22917
1395727529801,5.20803
1395727589801,5.19708
1395727649801,5.22226
1395727709802,5.21027
1395727769802,5.24913
1395727829802,5.25042
1395727889802,5.21371
1395727949802,5.25013
1395728009802,5.20995
1395728069802,5.24017
1395728129801,5.23054
1395728189801,5.22955
1395728249801,5.28095
1395728309801,5.17781
1395728369801,5.20762
1395728429801,5.21579
1395728489801,5.23052
1395728549801,5.21666
1395728609801,5.21648
1395728669801,5.23815
1395728729802,5.21938
1395728789801,5.19006
1395728849801,5.22341
1395728909801,5.16468
1395728969801,5.19185
1395729029802,5.22557
1395729089802,5.18524
1395729149802,5.23299
1395729209802,5.20176
1395729269802,5.19358
1395729329802,5.18232
1395729389802,5.17942
1395729449801,5.20470
1395729509801,5.21313
1395729569801,5.19501
1395729629801,5.23318
1395729689801,5.19909
1395729749801,5.20060
1395729809801,5.17386
1395729869801,5.23064
1395729929801,5.19563
1395729989801,5.26767
1395730049802,5.27082
1395730109802,5.20602
1395730169801,5.19352
1395730229801,5.20694
1395730289801,5.19340
1395730349801,5.23449
1395730409802,5.22223
1395730469802,5.17635
1395730529802,5.18804
1395730589802,5.30666
1395730649802,5.20946
1395730709802,5.20330
1395730769802,5.21035
1395730829814,5.21008
1395730889814,5.20223
1395730949814,5.19681
1395731009814,5.16941
1395731069814,5.24842
1395731129814,5.23631
1395731189814,5.22774
1395731249814,5.17288
1395731309814,5.23982
1395731369814,5.19679
1395731429814,5.21828
1395731489814,5.21050
1395731549814,5.26665
1395731609814,5.17827
1395731669814,5.21339
1395731729814,5.19686
1395731789814,5.23226
1395731849814,5.17100
1395731909814,5.22264
1395731969814,5.18352
1395732029814,5.23001
1395732089814,5.17544
1395732149814,5.19894
1395732209814,5.20418
1395732269814,5.21246
1395732329814,5.21907
1395732389814,5.21884
1395732449814,5.20051
1395732509814,5.22774
1395732569814,5.20297
1395732629814,5.21253
1395732689814,5.24998
1395732749814,5.24921
1395732809814,5.21449
1395732869814,5.23951
1395732929814,5.22097
1395732989814,5.23141
1395733049814,5.20582
1395733109814,5.19248
1395733169814,5.23636
1395733229814,5.20253
1395733289814,5.24118
1395733349814,5.20679
1395733409814,5.21290
1395733469814,5.23436
1395733529814,5.22021
1395733589814,5.27075
1395733649814,5.21807
1395733709814,5.24118
1395733769814,5.22785
1395733829814,5.22787
1395733889814,5.24548
1395733949814,5.21661
1395734009814,5.21757
1395734069814,5.21379
1395734129814,5.27966
1395734189814,5.24616
1395734249814,5.21820
1395734309814,5.22512
1395734369814,5.25130
1395734429826,5.27796
1395734489826,5.24306
1395734549826,5.27085
1395734609826,5.22468
1395734669826,5.23154
1395734729826,5.22236
1395734789826,5.24706
1395734849826,5.21365
1395734909826,5.26471
1395734969826,5.27414
1395735029826,5.22090
1395735089826,5.28708
1395735149826,5.25227
1395735209826,5.24145
1395735269826,5.23447
1395735329826,5.21340
1395735389826,5.18077
1395735449826,5.19697
1395735509826,5.17586
1395735569826,5.21935
1395735629826,5.21580
1395735689826,5.18714
1395735749826,5.22565
1395735809826,5.22263
1395735869826,5.23407
1395735929826,5.19865
1395735989826,5.14554
1395736049826,5.19665
1395736109826,5.20746
1395736169826,5.15745
1395736229826,5.18899
1395736289826,5.23463
1395736349826,5.25890
1395736409826,5.23790
1395736469826,5.25617
1395736529826,5.23656
1395736589826,5.24547
1395736649826,5.23436
1395736709826,5.22809
1395736769826,5.19254
1395736829826,5.23149
1395736889826,5.21581
1395736949826,5.23086
1395737009826,5.19233
1395737069826,5.21649
1395737129826,5.22505
1395737189826,5.21901
1395737249826,5.17931
1395737309826,5.25419
1395737369826,5.23669
1395737429826,5.21094
1395737489826,5.19392
1395737549826,5.18743
1395737609826,5.17752
1395737669826,5.20526
1395737729826,5.19626
1395737789826,5.19512
1395737849826,5.20469
1395737909826,5.20626
1395737969826,5.28368
1395738029838,5.19077
1395738089838,5.21302
1395738149838,5.19566
1395738209838,5.21286
1395738269838,5.19546
1395738329838,5.23077
1395738389838,5.22709
1395738449838,5.23041
1395738509838,5.18796
1395738569838,5.22116
1395738629838,5.21261
1395738689838,5.18338
1395738749838,5.20693
1395738809838,5.23407
1395738869838,5.20770
1395738929838,5.16830
1395738989838,5.19604
1395739049838,5.22443
1395739109838,5.21819
1395739169838,5.19589
1395739229838,5.19299
1395739289838,5.20897
1395739349838,5.23699
1395739409838,5.23007
1395739469838,5.19209
1395739529838,5.22838
1395739589838,5.18418
1395739649838,5.26335
1395739709838,5.19304
1395739769838,5.16811
1395739829838,5.25445
1395739889838,5.23599
1395739949838,5.21292
1395740009838,5.19616
1395740069838,5.15784
1395740129838,5.19304
1395740189838,5.21265
1395740249838,5.21026
1395740309838,5.20487
1395740369838,5.17366
1395740429838,5.21124
1395740489838,5.26789
1395740549838,5.21135
1395740609838,5.23065
1395740669838,5.23295
1395740729838,5.18113
1395740789838,5.23779
1395740849838,5.25396
1395740909838,5.22500
1395740969838,5.19817
1395741029838,5.24347
1395741089838,5.26913
1395741149838,5.24124
1395741209838,5.23943
1395741269838,5.19639
1395741329838,5.19822
1395741389838,5.22511
1395741449838,5.18712
1395741509838,5.22552
1395741569838,5.23842
1395741629850,5.24671
1395741689850,5.25015
1395741749850,5.24076
1395741809850,5.23567
1395741869850,5.25018
1395741929850,5.24131
1395741989850,5.22137
1395742049850,5.27030
1395742109850,5.21805
1395742169850,5.23984
1395742229850,5.23760
1395742289850,5.21110
1395742349850,5.24141
1395742409850,5.21933
1395742469850,5.22594
1395742529850,5.23468
1395742589850,5.25912
1395742649850,5.25212
1395742709850,5.19155
1395742769850,5.20682
1395742829850,5.24670
1395742889850,5.25600
1395742949850,5.21798
1395743009850,5.19622
1395743069850,5.26548
1395743129850,5.22631
1395743189850,5.22496
1395743249850,5.19100
1395743309850,5.19825
1395743369850,5.21888
1395743429850,5.19159
1395743489850,5.20386
1395743549850,5.19035
1395743609850,5.21902
1395743669850,5.23442
1395743729850,5.18402
1395743789850,5.19380
1395743849850,5.18552
1395743909850,5.21563
1395743969850,5.20451
1395744029850,5.22744
1395744089850,5.20631
1395744149850,5.21476
1395744209850,5.18317
1395744269850,5.20885
1395744329850,5.21650
1395744389850,5.20635
1395744449850,5.20074
1395744509850,5.18357
1395744569850,5.22051
1395744629850,5.17984
1395744689850,5.18880
1395744749850,5.19540
1395744809850,5.22141
1395744869850,5.20838
1395744929850,5.24274
1395744989850,5.19336
1395745049850,5.20380
1395745109850,5.20200
1395745169850,5.18873
1395745229862,5.22308
1395745289862,5.19547
1395745349862,5.22212
1395745409862,5.20823
1395745469862,5.18315
1395745529862,5.20395
1395745589862,5.24004
1395745649862,5.20074
1395745709862,5.20377
1395745769862,5.18321
1395745829862,5.20687
1395745889862,5.22493
1395745949862,5.21362
1395746009862,5.19204
1395746069862,5.24080
1395746129862,5.22873
1395746189862,5.22269
1395746249862,5.24275
1395746309862,5.24596
1395746369862,5.24399
1395746429862,5.22745
1395746489862,5.20146
1395746549862,5.22803
1395746609862,5.21531
1395746669862,5.20974
1395746729862,5.23048
1395746789862,5.22294
1395746849862,5.20224
1395746909862,5.25231
1395746969862,5.21521
1395747029862,5.22894
1395747089862,5.22833
1395747149862,5.21088
1395747209862,5.22994
1395747269862,5.20542
1395747329862,5.18641
1395747389862,5.22371
1395747449862,5.21947
1395747509862,5.22772
1395747569862,5.23886
1395747629862,5.24587
1395747689862,5.20232
1395747749862,5.24467
1395747809862,5.20923
1395747869862,5.24228
1395747929862,5.22943
1395747989862,5.22231
1395748049862,5.26376
1395748109862,5.22273
1395748169862,5.22058
1395748229862,5.24671
1395748289862,5.23721
1395748349862,5.24667
1395748409862,5.24040
1395748469862,5.24025
1395748529862,5.23179
1395748589862,5.24463
1395748649862,5.26043
1395748709862,5.22063
1395748769862,5.23861
1395748829874,5.24669
1395748889874,5.24725
1395748949874,5.21098
1395749009874,5.21149
1395749069874,5.21816
1395749129874,5.26230
1395749189874,5.21738
1395749249874,5.22068
1395749309874,5.23950
1395749369874,5.28213
1395749429874,5.25553
1395749489874,5.23483
1395749549874,5.24120
1395749609874,5.29640
1395749669874,5.23971
1395749729874,5.21130
1395749789874,5.23905
1395749849874,5.23263
1395749909874,5.22817
1395749969874,5.21775
1395750029873,5.23262
1395750089874,5.24950
1395750149874,5.27148
1395750209874,5.24852
1395750269874,5.24520
1395750329874,5.20106
1395750389874,5.26172
1395750449874,5.26820
1395750509874,5.24014
1395750569874,5.22544
1395750629874,5.23360
1395750689874,5.20642
1395750749874,5.24682
1395750809874,5.25806
1395750869874,5.24830
1395750929874,5.27609
1395750989874,5.23206
1395751049874,5.21015
1395751109874,5.27543
1395751169874,5.26686
1395751229874,5.22838
1395751289874,5.24090
1395751349873,5.21992
1395751409873,5.22408
1395751469874,5.21357
1395751529874,5.22467
1395751589874,5.22530
1395751649874,5.22024
1395751709874,5.25464
1395751769874,5.23376
1395751829874,5.25220
1395751889874,5.23642
1395751949874,5.22839
1395752009874,5.23163
1395752069874,5.23430
1395752129874,5.23840
1395752189874,5.22842
1395752249874,5.18810
1395752309874,5.18041
1395752369874,5.20816
1395752429875,5.20776
1395752489875,5.20805
1395752549875,5.25524
1395752609875,5.22899
1395752669876,5.23359
1395752729876,5.20244
1395752789876,5.20599
1395752849876,5.21080
1395752909875,5.22792
1395752969875,5.20954
1395753029875,5.22983
1395753089875,5.18970
1395753149875,5.24842
1395753209875,5.18957
1395753269875,5.24314
1395753329875,5.23854
1395753389875,5.23818
1395753449875,5.22744
1395753509875,5.20232
1395753569875,5.21164
1395753629875,5.19217
1395753689875,5.21772
1395753749875,5.17618
1395753809875,5.20629
1395753869875,5.22138
1395753929875,5.21162
1395753989876,5.24787
1395754049876,5.19265
1395754109876,5.19398
1395754169876,5.19314
1395754229875,5.21542
1395754289875,5.20626
1395754349875,5.19780
1395754409875,5.18242
1395754469875,5.22648
1395754529875,5.21563
1395754589875,5.18864
1395754649875,5.17310
1395754709875,5.18375
1395754769875,5.20401
1395754829875,5.21899
1395754889875,5.19143
1395754949875,5.20451
1395755009875,5.19823
1395755069875,5.17400
1395755129875,5.22900
1395755189875,5.23394
1395755249875,5.20007
1395755309875,5.21874
1395755369876,5.25031
1395755429876,5.19882
1395755489876,5.17690
1395755549876,5.15510
1395755609875,5.22261
1395755669875,5.16943
1395755729875,5.22022
1395755789875,5.15797
1395755849875,5.16411
1395755909875,5.17956
1395755969875,5.18877
1395756029886,5.20131
1395756089886,5.18797
1395756149886,5.17688
1395756209886,5.16806
1395756269886,5.18881
1395756329886,5.17189
1395756389886,5.20251
1395756449886,5.16210
1395756509886,5.19580
1395756569886,5.17060
1395756629886,5.16192
1395756689886,5.17444
1395756749886,5.16191
1395756809886,5.15944
1395756869886,5.17026
1395756929886,5.17771
1395756989886,5.17614
1395757049886,5.20751
1395757109886,5.16484
1395757169886,5.19367
1395757229886,5.19323
1395757289886,5.17993
1395757349886,5.17981
1395757409886,5.19990
1395757469886,5.20410
1395757529886,5.18879
1395757589886,5.19299
1395757649886,5.15320
1395757709886,5.20487
1395757769886,5.19056
1395757829886,5.18167
1395757889886,5.18218
1395757949886,5.20311
1395758009886,5.18593
1395758069886,5.14404
1395758129886,5.16477
1395758189886,5.13923
1395758249886,5.16162
1395758309886,5.15845
1395758369886,5.15054
1395758429886,5.15493
1395758489886,5.16524
1395758549886,5.15208
1395758609886,5.16216
1395758669886,5.17870
1395758729886,5.16505
1395758789886,5.14086
1395758849886,5.16822
1395758909886,5.17537
1395758969886,5.14919
1395759029886,5.13450
1395759089886,5.14739
1395759149886,5.18088
1395759209886,5.16071
1395759269886,5.13224
1395759329886,5.13045
1395759389886,5.12445
1395759449886,5.13136
1395759509886,5.14785
1395759569886,5.17196
1395759629896,5.16597
1395759689896,5.18752
1395759749896,5.13665
1395759809896,5.13286
1395759869896,5.14227
1395759929896,5.15203
1395759989896,5.14549
1395760049896,5.15302
1395760109896,5.17630
1395760169896,5.17153
1395760229896,5.12821
1395760289896,5.16602
1395760349896,5.14565
1395760409896,5.18957
1395760469896,5.15640
1395760529896,5.17906
1395760589896,5.15869
1395760649896,5.17280
1395760709896,5.12656
1395760769896,5.19496
1395760829896,5.20339
1395760889896,5.20049
1395760949896,5.16551
1395761009896,5.21446
1395761069896,5.21211
1395761129896,5.19330
1395761189896,5.17861
1395761249896,5.21054
1395761309896,5.19426
1395761369896,5.16814
1395761429896,5.18087
1395761489896,5.17129
1395761549896,5.18295
1395761609896,5.19438
1395761669896,5.18961
1395761729896,5.19166
1395761789896,5.19421
1395761849896,5.18727
1395761909896,5.17284
1395761969896,5.14823
1395762029896,5.14871
1395762089896,5.20048
1395762149896,5.18090
1395762209896,5.14586
1395762269896,5.20069
1395762329896,5.15951
1395762389896,5.15260
1395762449896,5.19262
1395762509896,5.15553
1395762569896,5.15108
1395762629896,5.15235
1395762689896,5.15786
1395762749896,5.17260
1395762809896,5.18682
1395762869896,5.18195
1395762929896,5.15687
1395762989896,5.12843
1395763049896,5.21257
1395763109896,5.17765
1395763169896,5.18491
1395763229907,5.16016
1395763289907,5.17605
1395763349907,5.17986
1395763409907,5.18658
1395763469907,5.18321
1395763529907,5.18840
1395763589907,5.19425
1395763649907,5.18669
1395763709907,5.18403
1395763769907,5.17483
1395763829907,5.18286
1395763889907,5.19000
1395763949907,5.15527
1395764009907,5.18482
1395764069907,5.17928
1395764129907,5.16983
1395764189907,5.18526
1395764249907,5.18896
1395764309907,5.19095
1395764369907,5.14000
1395764429907,5.21943
1395764489907,5.17060
1395764549907,5.20153
1395764609907,5.18874
1395764669907,5.20439
1395764729907,5.17821
1395764789907,5.16515
1395764849907,5.17528
1395764909907,5.17557
1395764969907,5.20324
1395765029907,5.19992
1395765089907,5.21144
1395765149907,5.19644
1395765209907,5.19168
1395765269907,5.17802
1395765329907,5.19410
1395765389907,5.16232
1395765449907,5.24261
1395765509907,5.20401
1395765569907,5.19993
1395765629907,5.20546
1395765689907,5.18624
1395765749907,5.20567
1395765809907,5.20707
1395765869907,5.19002
1395765929907,5.18199
1395765989907,5.19190
1395766049907,5.20863
1395766109907,5.21499
1395766169907,5.20973
1395766229907,5.19236
1395766289907,5.17542
1395766349907,5.21442
1395766409907,5.19435
1395766469907,5.20931
1395766529907,5.20630
1395766589907,5.20130
1395766649907,5.19685
1395766709907,5.17637
1395766769907,5.20472
1395766829917,5.19045
1395766889917,5.18896
1395766949917,5.24787
1395767009917,5.18647
1395767069917,5.23192
1395767129917,5.21920
1395767189917,5.21516
1395767249917,5.23244
1395767309917,5.24490
1395767369917,5.26682
1395767429917,5.26718
1395767489917,5.25039
1395767549917,5.22315
1395767609917,5.22826
1395767669917,5.22452
1395767729917,5.22858
1395767789917,5.21282
1395767849917,5.25052
1395767909917,5.26039
1395767969917,5.23529
1395768029917,5.20782
1395768089917,5.25332
1395768149917,5.23854
1395768209917,5.23214
1395768269917,5.23829
1395768329917,5.24371
1395768389917,5.21442
1395768449917,5.24534
1395768509917,5.20879
1395768569917,5.24453
1395768629917,5.24645
1395768689917,5.25048
1395768749917,5.27731
1395768809917,5.21863
1395768869917,5.23726
1395768929917,5.27870
1395768989917,5.23157
1395769049917,5.24732
1395769109917,5.23282
1395769169917,5.22108
1395769229917,5.23414
1395769289917,5.25363
1395769349917,5.21788
1395769409917,5.21657
1395769469917,5.22572
1395769529917,5.22301
1395769589917,5.20678
1395769649917,5.22346
1395769709917,5.23806
1395769769917,5.23192
1395769829917,5.25109
1395769889917,5.24811
1395769949917,5.18425
1395770009917,5.18896
1395770069917,5.21723
1395770129917,5.21492
1395770189917,5.22146
1395770249917,5.21869
1395770309917,5.22807
1395770369917,5.20486
1395770429928,5.20113
1395770489928,5.21754
1395770549928,5.22179
1395770609928,5.22328
1395770669928,5.25391
1395770729928,5.24458
1395770789928,5.20830
1395770849928,5.23081
1395770909928,5.21332
1395770969928,5.18783
1395771029928,5.22635
1395771089928,5.17651
1395771149928,5.20361
1395771209928,5.20263
1395771269928,5.23389
1395771329928,5.24012
1395771389928,5.20504
1395771449928,5.21172